Language: 


Des rapports , des résumés tant et plus, au choix de chacun....


Données Historiques de Météogheer
Journalier Rapport pour Janvier 6, 2018 Unitée:  Métrique    Impériale   Les deux
Suivant Jour »
Journalier Hebdomadaire Mensuel Annuel Sur mesure
  Max: Min: Moyenne:
Température: 7.3 °C 3.3 °C 5.6 °C
Point de rosée: 7.0 °C 3.0 °C 5.6 °C
Humidité: 98% 93% 97%
Vent: 27.4km/h 0.0km/h 6.1km/h
Rafales: 27.7km/h - -
Vent- - ENE
Pression: 1016.1 hPa 999.9 hPa -
Pluie: 0.3 mm    
Historical Graphs
 
 
Données tabulaires pour Janvier 6, 2018
Heure Température Point de rosée Pression Vent Vent Rafales Humidité Pluie Taux (Horaire) Conditions
00:03 5.7 °C 5.0 °C 1000.9 hPa South 4.0 km/h 9.3 km/h 95% 0.0 mm
00:08 5.6 °C 5.0 °C 1000.9 hPa SSW 4.0 km/h 9.0 km/h 95% 0.0 mm
00:09 5.6 °C 5.0 °C 1000.9 hPa Calm   7.9 km/h 95% 0.0 mm
00:14 5.5 °C 5.0 °C 1000.9 hPa Calm   9.0 km/h 95% 0.0 mm
00:17 5.4 °C 5.0 °C 1000.9 hPa Calm   9.0 km/h 95% 0.0 mm
00:22 5.3 °C 5.0 °C 1000.9 hPa South 9.3 km/h 9.3 km/h 95% 0.0 mm
00:28 5.2 °C 5.0 °C 1000.9 hPa Calm   9.7 km/h 95% 0.0 mm
00:30 5.2 °C 5.0 °C 1000.9 hPa SW 6.4 km/h 9.7 km/h 95% 0.0 mm
00:33 5.2 °C 5.0 °C 1000.9 hPa SSW 6.1 km/h 10.5 km/h 96% 0.0 mm
00:38 5.1 °C 5.0 °C 1000.9 hPa SSW 2.6 km/h 10.5 km/h 96% 0.0 mm
00:43 5.1 °C 5.0 °C 999.9 hPa Calm   8.7 km/h 96% 0.0 mm
00:48 5.0 °C 5.0 °C 999.9 hPa SSW 6.9 km/h 7.6 km/h 96% 0.0 mm
00:53 5.0 °C 5.0 °C 999.9 hPa Calm   9.7 km/h 96% 0.0 mm
00:58 5.0 °C 5.0 °C 1000.9 hPa Calm   10.5 km/h 96% 0.0 mm
01:03 5.0 °C 5.0 °C 1000.9 hPa SSW 6.9 km/h 10.5 km/h 96% 0.0 mm
01:04 5.0 °C 5.0 °C 1000.9 hPa SW 10.1 km/h 10.1 km/h 96% 0.0 mm
01:05 5.0 °C 5.0 °C 1000.9 hPa SSW 8.7 km/h 10.1 km/h 96% 0.0 mm
01:11 5.0 °C 5.0 °C 1000.9 hPa SSW 6.1 km/h 10.1 km/h 96% 0.0 mm
01:16 5.0 °C 5.0 °C 1000.9 hPa Calm   9.3 km/h 96% 0.0 mm
01:18 5.0 °C 5.0 °C 1000.9 hPa SSW 6.9 km/h 9.3 km/h 96% 0.0 mm
01:23 5.0 °C 5.0 °C 1000.9 hPa Calm   9.3 km/h 96% 0.0 mm
01:28 4.9 °C 5.0 °C 1000.9 hPa Calm   8.7 km/h 96% 0.0 mm
01:31 4.8 °C 4.0 °C 1000.9 hPa Calm   6.9 km/h 96% 0.0 mm
01:36 4.8 °C 4.0 °C 1000.9 hPa Calm   6.1 km/h 96% 0.0 mm
01:41 4.7 °C 4.0 °C 1000.9 hPa Calm   6.1 km/h 96% 0.0 mm
01:46 4.7 °C 4.0 °C 1000.9 hPa Calm   7.6 km/h 96% 0.0 mm
01:51 4.7 °C 4.0 °C 1000.9 hPa Calm   7.6 km/h 96% 0.0 mm
01:56 4.7 °C 4.0 °C 1000.9 hPa Calm   5.8 km/h 96% 0.0 mm
02:00 4.6 °C 4.0 °C 1000.9 hPa Calm   4.7 km/h 96% 0.0 mm
02:04 4.6 °C 4.0 °C 1000.9 hPa Calm   4.7 km/h 96% 0.0 mm
02:07 4.6 °C 4.0 °C 1000.9 hPa Calm   4.7 km/h 96% 0.0 mm
02:12 4.6 °C 4.0 °C 1000.9 hPa SSW 1.4 km/h 4.0 km/h 96% 0.0 mm
02:13 4.6 °C 4.0 °C 1000.9 hPa Calm   4.0 km/h 96% 0.0 mm
02:14 4.6 °C 4.0 °C 1000.9 hPa Calm   4.0 km/h 96% 0.0 mm
02:19 4.4 °C 4.0 °C 1000.9 hPa Calm   4.0 km/h 96% 0.0 mm
02:24 4.4 °C 4.0 °C 1000.9 hPa Calm     96% 0.0 mm
02:26 4.3 °C 4.0 °C 1000.9 hPa Calm     96% 0.0 mm
02:31 4.2 °C 4.0 °C 1000.9 hPa Calm     96% 0.0 mm
02:34 4.1 °C 4.0 °C 1000.9 hPa Calm     96% 0.0 mm
02:39 4.1 °C 4.0 °C 1000.9 hPa Calm     96% 0.0 mm
02:40 4.1 °C 4.0 °C 1000.9 hPa Calm     96% 0.0 mm
02:46 4.0 °C 4.0 °C 1000.9 hPa Calm     96% 0.0 mm
02:47 4.0 °C 4.0 °C 1000.9 hPa Calm     96% 0.0 mm
02:52 3.9 °C 4.0 °C 1000.9 hPa Calm     96% 0.0 mm
02:54 3.8 °C 3.0 °C 1000.9 hPa Calm     96% 0.0 mm
02:59 3.8 °C 3.0 °C 1000.9 hPa Calm     97% 0.0 mm
03:04 3.7 °C 3.0 °C 1000.9 hPa Calm     97% 0.0 mm
03:09 3.5 °C 3.0 °C 1000.9 hPa Calm     97% 0.0 mm
03:14 3.4 °C 3.0 °C 1000.9 hPa Calm     96% 0.0 mm
03:25 3.3 °C 3.0 °C 1000.9 hPa Calm     97% 0.0 mm
03:30 3.4 °C 3.0 °C 1000.9 hPa Calm     97% 0.0 mm
03:34 3.5 °C 4.0 °C 1000.9 hPa Calm     98% 0.0 mm
03:39 3.7 °C 4.0 °C 1000.9 hPa Calm     98% 0.0 mm
03:44 3.7 °C 4.0 °C 1000.9 hPa Calm     98% 0.0 mm
03:49 3.8 °C 4.0 °C 1000.9 hPa Calm   1.8 km/h 98% 0.0 mm
03:53 3.9 °C 4.0 °C 1000.9 hPa Calm   1.8 km/h 98% 0.0 mm
03:58 3.9 °C 4.0 °C 1000.9 hPa Calm   1.4 km/h 98% 0.0 mm
04:03 3.8 °C 4.0 °C 1000.9 hPa Calm     98% 0.0 mm
04:08 3.8 °C 4.0 °C 1000.9 hPa Calm     98% 0.0 mm
04:13 3.8 °C 4.0 °C 1000.9 hPa Calm   1.4 km/h 98% 0.0 mm
04:16 3.8 °C 4.0 °C 1000.9 hPa Calm   1.4 km/h 98% 0.0 mm
04:26 3.8 °C 4.0 °C 1000.9 hPa Calm     98% 0.0 mm
04:28 3.8 °C 4.0 °C 1000.9 hPa Calm     98% 0.0 mm
04:33 3.7 °C 4.0 °C 1000.9 hPa Calm     98% 0.0 mm
04:39 3.7 °C 4.0 °C 1000.9 hPa Calm     98% 0.0 mm
04:44 3.7 °C 4.0 °C 1001.9 hPa Calm     98% 0.0 mm
04:49 3.7 °C 4.0 °C 1001.9 hPa Calm     98% 0.0 mm
04:54 3.6 °C 4.0 °C 1001.9 hPa Calm     98% 0.0 mm
05:00 3.7 °C 4.0 °C 1000.9 hPa Calm   2.1 km/h 98% 0.0 mm
05:05 3.7 °C 4.0 °C 1000.9 hPa Calm   2.1 km/h 98% 0.0 mm
05:10 3.8 °C 4.0 °C 1000.9 hPa Calm   1.8 km/h 98% 0.0 mm
05:15 3.9 °C 4.0 °C 1001.9 hPa Calm   4.0 km/h 98% 0.0 mm
05:20 4.0 °C 4.0 °C 1001.9 hPa Calm   4.0 km/h 98% 0.0 mm
05:25 4.0 °C 4.0 °C 1001.9 hPa Calm   4.3 km/h 98% 0.0 mm
05:30 4.1 °C 4.0 °C 1001.9 hPa Calm   5.5 km/h 98% 0.0 mm
05:35 4.2 °C 4.0 °C 1001.9 hPa Calm   5.5 km/h 98% 0.0 mm
05:36 4.2 °C 4.0 °C 1001.9 hPa Calm   5.5 km/h 98% 0.0 mm
05:41 4.3 °C 4.0 °C 1001.9 hPa SSE 1.4 km/h 4.7 km/h 98% 0.0 mm
05:46 4.3 °C 4.0 °C 1001.9 hPa SSE 4.7 km/h 4.7 km/h 98% 0.0 mm
05:51 4.4 °C 4.0 °C 1001.9 hPa Calm   4.7 km/h 98% 0.0 mm
05:57 4.4 °C 4.0 °C 1001.9 hPa Calm     98% 0.0 mm
06:02 4.5 °C 5.0 °C 1001.9 hPa Calm     98% 0.0 mm
06:07 4.5 °C 5.0 °C 1001.9 hPa Calm     98% 0.0 mm
06:08 4.5 °C 5.0 °C 1001.9 hPa Calm     98% 0.0 mm
06:13 4.6 °C 5.0 °C 1001.9 hPa Calm     98% 0.0 mm
06:18 4.6 °C 5.0 °C 1001.9 hPa Calm     98% 0.0 mm
06:23 4.6 °C 5.0 °C 1001.9 hPa Calm     98% 0.0 mm
06:28 4.6 °C 5.0 °C 1001.9 hPa Calm     98% 0.0 mm
06:32 4.6 °C 5.0 °C 1001.9 hPa Calm     98% 0.0 mm
06:37 4.7 °C 5.0 °C 1001.9 hPa Calm     98% 0.0 mm
06:42 4.7 °C 5.0 °C 1001.9 hPa Calm     98% 0.0 mm
06:47 4.7 °C 5.0 °C 1001.9 hPa Calm     98% 0.0 mm
06:52 4.8 °C 5.0 °C 1001.9 hPa Calm     98% 0.0 mm
06:57 4.8 °C 5.0 °C 1001.9 hPa Calm     98% 0.0 mm
06:59 4.8 °C 5.0 °C 1001.9 hPa Calm     98% 0.0 mm
07:04 4.8 °C 5.0 °C 1001.9 hPa Calm     98% 0.0 mm
07:09 4.8 °C 5.0 °C 1001.9 hPa Calm     98% 0.0 mm
07:10 4.8 °C 5.0 °C 1001.9 hPa Calm     98% 0.0 mm
07:14 4.8 °C 5.0 °C 1001.9 hPa Calm     98% 0.0 mm
07:19 4.8 °C 5.0 °C 1001.9 hPa Calm     98% 0.0 mm
07:22 4.9 °C 5.0 °C 1001.9 hPa Calm     98% 0.0 mm
07:27 4.9 °C 5.0 °C 1002.9 hPa Calm     98% 0.0 mm
07:32 4.9 °C 5.0 °C 1002.9 hPa Calm     98% 0.0 mm
07:37 4.9 °C 5.0 °C 1002.9 hPa Calm     98% 0.0 mm
07:39 4.9 °C 5.0 °C 1002.9 hPa Calm     98% 0.0 mm
07:45 4.9 °C 5.0 °C 1002.9 hPa Calm     98% 0.0 mm
07:50 4.9 °C 5.0 °C 1002.9 hPa Calm     98% 0.0 mm
07:52 5.0 °C 5.0 °C 1002.9 hPa Calm     98% 0.0 mm
07:57 5.0 °C 5.0 °C 1002.9 hPa Calm     98% 0.0 mm
08:01 5.0 °C 5.0 °C 1002.9 hPa Calm     98% 0.0 mm
08:07 5.0 °C 5.0 °C 1002.9 hPa Calm     98% 0.0 mm
08:12 5.0 °C 5.0 °C 1002.9 hPa Calm     98% 0.0 mm
08:17 5.0 °C 5.0 °C 1002.9 hPa Calm     98% 0.0 mm
08:18 5.0 °C 5.0 °C 1002.9 hPa Calm     98% 0.0 mm
08:23 5.0 °C 5.0 °C 1002.9 hPa Calm     98% 0.0 mm
08:28 5.0 °C 5.0 °C 1002.9 hPa Calm     98% 0.0 mm
08:33 4.9 °C 5.0 °C 1002.9 hPa Calm     98% 0.0 mm
08:38 4.9 °C 5.0 °C 1002.9 hPa Calm     98% 0.0 mm
08:43 4.8 °C 5.0 °C 1002.9 hPa Calm     98% 0.3 mm
08:49 4.8 °C 5.0 °C 1002.9 hPa Calm     98% 0.3 mm
08:54 4.8 °C 5.0 °C 1002.9 hPa Calm     98% 0.3 mm
08:59 4.7 °C 5.0 °C 1003.9 hPa Calm     98% 0.3 mm
09:04 4.7 °C 5.0 °C 1003.9 hPa Calm     98% 0.3 mm
09:09 4.7 °C 5.0 °C 1003.9 hPa Calm     98% 0.3 mm
09:14 4.7 °C 5.0 °C 1005.0 hPa Calm     98% 0.3 mm
09:19 4.7 °C 5.0 °C 1005.0 hPa Calm     98% 0.3 mm
09:24 4.7 °C 5.0 °C 1005.0 hPa Calm     98% 0.3 mm
09:30 4.7 °C 5.0 °C 1005.0 hPa Calm   4.7 km/h 98% 0.3 mm
09:35 4.7 °C 5.0 °C 1005.0 hPa Calm   4.7 km/h 98% 0.3 mm
09:40 4.7 °C 5.0 °C 1005.0 hPa NNE 6.1 km/h 6.1 km/h 98% 0.3 mm
09:45 4.7 °C 5.0 °C 1005.0 hPa Calm   6.1 km/h 98% 0.0 mm
09:50 4.7 °C 5.0 °C 1005.0 hPa Calm   6.1 km/h 98% 0.0 mm
09:55 4.8 °C 5.0 °C 1005.0 hPa Calm   5.0 km/h 98% 0.0 mm
09:58 4.8 °C 5.0 °C 1005.0 hPa Calm   5.0 km/h 98% 0.0 mm
10:03 4.8 °C 5.0 °C 1005.0 hPa Calm   5.0 km/h 98% 0.0 mm
10:06 4.9 °C 5.0 °C 1005.0 hPa Calm     98% 0.0 mm
10:11 5.0 °C 5.0 °C 1005.0 hPa Calm     98% 0.0 mm
10:16 5.1 °C 5.0 °C 1005.0 hPa Calm     98% 0.0 mm
10:21 5.1 °C 5.0 °C 1005.0 hPa NE 2.1 km/h 4.3 km/h 98% 0.0 mm
10:26 5.2 °C 5.0 °C 1006.0 hPa Calm   5.5 km/h 98% 0.0 mm
10:30 5.3 °C 6.0 °C 1006.0 hPa Calm   5.5 km/h 98% 0.0 mm
10:35 5.4 °C 6.0 °C 1006.0 hPa Calm   4.3 km/h 98% 0.0 mm
10:36 5.4 °C 6.0 °C 1006.0 hPa Calm   4.3 km/h 98% 0.0 mm
10:41 5.5 °C 6.0 °C 1006.0 hPa NNE 1.8 km/h 5.5 km/h 98% 0.0 mm
10:46 5.6 °C 6.0 °C 1006.0 hPa Calm   5.5 km/h 98% 0.0 mm
10:51 5.7 °C 6.0 °C 1006.0 hPa Calm   5.5 km/h 98% 0.0 mm
10:52 5.7 °C 6.0 °C 1006.0 hPa NNE 4.3 km/h 5.5 km/h 98% 0.0 mm
10:57 5.7 °C 6.0 °C 1006.0 hPa NE 6.1 km/h 7.9 km/h 98% 0.0 mm
11:00 5.7 °C 6.0 °C 1006.0 hPa NNE 5.0 km/h 7.9 km/h 98% 0.0 mm
11:06 5.8 °C 6.0 °C 1006.0 hPa NE 5.8 km/h 7.6 km/h 98% 0.0 mm
11:07 5.8 °C 6.0 °C 1006.0 hPa NE 9.0 km/h 9.0 km/h 98% 0.0 mm
11:12 5.8 °C 6.0 °C 1006.0 hPa NE 6.4 km/h 9.3 km/h 98% 0.0 mm
11:17 5.8 °C 6.0 °C 1006.0 hPa Calm   9.3 km/h 98% 0.0 mm
11:18 5.8 °C 6.0 °C 1006.0 hPa Calm   9.3 km/h 98% 0.0 mm
11:24 5.9 °C 6.0 °C 1006.0 hPa NE 4.7 km/h 7.9 km/h 98% 0.0 mm
11:29 6.0 °C 6.0 °C 1006.0 hPa Calm   7.6 km/h 98% 0.0 mm
11:34 6.1 °C 6.0 °C 1006.0 hPa NNE 6.9 km/h 7.2 km/h 98% 0.0 mm
11:39 6.1 °C 6.0 °C 1006.0 hPa East 5.8 km/h 6.9 km/h 98% 0.0 mm
11:44 6.2 °C 6.0 °C 1007.0 hPa NNE 6.9 km/h 6.9 km/h 98% 0.0 mm
11:49 6.3 °C 6.0 °C 1007.0 hPa NE 6.1 km/h 6.9 km/h 98% 0.0 mm
11:54 6.3 °C 6.0 °C 1007.0 hPa Calm   6.1 km/h 98% 0.0 mm
11:56 6.4 °C 6.0 °C 1007.0 hPa Calm   6.1 km/h 98% 0.0 mm
12:01 6.4 °C 6.0 °C 1007.0 hPa Calm   8.7 km/h 98% 0.0 mm
12:07 6.4 °C 6.0 °C 1007.0 hPa NE 9.0 km/h 9.0 km/h 98% 0.0 mm
12:12 6.4 °C 6.0 °C 1007.0 hPa ENE 6.9 km/h 9.7 km/h 98% 0.0 mm
12:17 6.5 °C 7.0 °C 1007.0 hPa Calm   9.7 km/h 98% 0.0 mm
12:22 6.5 °C 7.0 °C 1007.0 hPa East 8.7 km/h 8.7 km/h 98% 0.0 mm
12:27 6.6 °C 7.0 °C 1006.0 hPa NE 5.8 km/h 9.0 km/h 98% 0.0 mm
12:32 6.6 °C 7.0 °C 1006.0 hPa NE 7.9 km/h 10.1 km/h 98% 0.0 mm
12:37 6.7 °C 7.0 °C 1006.0 hPa NNE 6.9 km/h 10.1 km/h 98% 0.0 mm
12:42 6.7 °C 7.0 °C 1007.0 hPa NE 7.9 km/h 10.1 km/h 98% 0.0 mm
12:43 6.7 °C 7.0 °C 1007.0 hPa NNE 8.7 km/h 10.1 km/h 98% 0.0 mm
12:48 6.7 °C 7.0 °C 1007.0 hPa NE 9.7 km/h 11.6 km/h 98% 0.0 mm
12:54 6.6 °C 7.0 °C 1007.0 hPa NE 6.4 km/h 11.6 km/h 98% 0.0 mm
12:55 6.6 °C 7.0 °C 1007.0 hPa NNE 9.0 km/h 11.6 km/h 98% 0.0 mm
13:00 6.6 °C 7.0 °C 1006.0 hPa North 5.5 km/h 10.1 km/h 98% 0.0 mm
13:06 6.7 °C 7.0 °C 1006.0 hPa NNE 5.0 km/h 9.7 km/h 98% 0.0 mm
13:11 6.7 °C 7.0 °C 1007.0 hPa NE 6.9 km/h 9.7 km/h 98% 0.0 mm
13:21 6.6 °C 7.0 °C 1007.0 hPa NNW 5.0 km/h 11.6 km/h 98% 0.0 mm
13:27 6.7 °C 7.0 °C 1007.0 hPa North 10.5 km/h 11.6 km/h 98% 0.0 mm
13:29 6.7 °C 7.0 °C 1007.0 hPa NNE 5.5 km/h 11.6 km/h 98% 0.0 mm
13:31 6.7 °C 7.0 °C 1007.0 hPa North 5.8 km/h 11.9 km/h 98% 0.0 mm
13:36 6.7 °C 7.0 °C 1007.0 hPa ENE 3.2 km/h 11.9 km/h 98% 0.0 mm
13:41 6.7 °C 7.0 °C 1007.0 hPa NE 2.1 km/h 10.5 km/h 98% 0.0 mm
13:44 6.7 °C 7.0 °C 1007.0 hPa NE 10.5 km/h 10.5 km/h 98% 0.0 mm
13:49 6.8 °C 7.0 °C 1007.0 hPa Calm   10.5 km/h 98% 0.0 mm
13:54 6.8 °C 7.0 °C 1007.0 hPa NE 9.0 km/h 12.6 km/h 98% 0.0 mm
13:56 6.8 °C 7.0 °C 1007.0 hPa NNE 9.3 km/h 12.6 km/h 98% 0.0 mm
14:01 6.8 °C 7.0 °C 1007.0 hPa NE 8.7 km/h 10.5 km/h 98% 0.0 mm
14:02 6.8 °C 7.0 °C 1007.0 hPa NE 9.7 km/h 10.5 km/h 98% 0.0 mm
14:07 6.8 °C 7.0 °C 1007.0 hPa NNE 6.4 km/h 10.5 km/h 98% 0.0 mm
14:12 6.8 °C 7.0 °C 1007.0 hPa North 6.9 km/h 10.5 km/h 98% 0.0 mm
14:17 6.9 °C 7.0 °C 1007.0 hPa NNE 7.9 km/h 10.1 km/h 98% 0.0 mm
14:19 6.9 °C 7.0 °C 1007.0 hPa NNE 6.9 km/h 10.1 km/h 98% 0.0 mm
14:25 7.0 °C 7.0 °C 1007.0 hPa NE 9.7 km/h 9.7 km/h 98% 0.0 mm
14:30 7.0 °C 7.0 °C 1008.0 hPa NE 6.9 km/h 11.9 km/h 98% 0.0 mm
14:35 7.0 °C 7.0 °C 1008.0 hPa NNE 9.0 km/h 11.9 km/h 98% 0.0 mm
14:40 7.1 °C 7.0 °C 1008.0 hPa NE 2.6 km/h 13.0 km/h 98% 0.0 mm
14:45 7.1 °C 7.0 °C 1008.0 hPa NNE 8.7 km/h 13.0 km/h 98% 0.0 mm
14:51 7.1 °C 7.0 °C 1008.0 hPa NE 10.5 km/h 11.6 km/h 98% 0.0 mm
14:56 7.2 °C 7.0 °C 1008.0 hPa NNE 10.5 km/h 13.7 km/h 98% 0.0 mm
15:01 7.2 °C 7.0 °C 1008.0 hPa NNE 13.7 km/h 14.0 km/h 98% 0.0 mm
15:06 7.2 °C 7.0 °C 1008.0 hPa NE 10.5 km/h 14.0 km/h 98% 0.0 mm
15:11 7.3 °C 7.0 °C 1008.0 hPa ENE 9.7 km/h 13.7 km/h 98% 0.0 mm
15:15 7.3 °C 7.0 °C 1008.0 hPa NE 10.8 km/h 12.6 km/h 98% 0.0 mm
15:21 7.2 °C 7.0 °C 1008.0 hPa NE 10.1 km/h 13.7 km/h 98% 0.0 mm
15:26 7.2 °C 7.0 °C 1008.0 hPa ENE 11.1 km/h 13.7 km/h 98% 0.0 mm
15:31 7.2 °C 7.0 °C 1008.0 hPa NE 8.7 km/h 12.6 km/h 98% 0.0 mm
15:36 7.2 °C 7.0 °C 1008.0 hPa NE 9.3 km/h 13.0 km/h 98% 0.0 mm
15:41 7.2 °C 7.0 °C 1009.0 hPa NNE 11.6 km/h 13.7 km/h 98% 0.0 mm
15:46 7.2 °C 7.0 °C 1009.0 hPa NE 9.7 km/h 13.7 km/h 98% 0.0 mm
15:49 7.2 °C 7.0 °C 1009.0 hPa NNE 10.1 km/h 12.2 km/h 98% 0.0 mm
15:54 7.1 °C 7.0 °C 1009.0 hPa NE 10.5 km/h 12.6 km/h 98% 0.0 mm
15:59 7.1 °C 7.0 °C 1009.0 hPa ENE 10.5 km/h 13.7 km/h 98% 0.0 mm
16:01 7.1 °C 7.0 °C 1009.0 hPa NNE 10.1 km/h 13.7 km/h 98% 0.0 mm
16:06 7.1 °C 7.0 °C 1009.0 hPa ENE 7.9 km/h 13.7 km/h 98% 0.0 mm
16:11 7.1 °C 7.0 °C 1009.0 hPa NE 6.9 km/h 15.4 km/h 98% 0.0 mm
16:16 7.0 °C 7.0 °C 1009.0 hPa NE 2.1 km/h 15.4 km/h 98% 0.0 mm
16:21 7.0 °C 7.0 °C 1009.0 hPa NE 10.1 km/h 13.7 km/h 98% 0.0 mm
16:27 6.9 °C 7.0 °C 1009.0 hPa NE 9.0 km/h 12.6 km/h 98% 0.0 mm
16:32 6.9 °C 7.0 °C 1009.0 hPa NE 9.3 km/h 12.6 km/h 98% 0.0 mm
16:34 6.9 °C 7.0 °C 1009.0 hPa NNE 10.5 km/h 12.2 km/h 98% 0.0 mm
16:39 6.9 °C 7.0 °C 1009.0 hPa NNE 10.1 km/h 14.0 km/h 98% 0.0 mm
16:44 6.9 °C 7.0 °C 1009.0 hPa NNE 10.8 km/h 14.0 km/h 98% 0.0 mm
16:49 6.8 °C 7.0 °C 1009.0 hPa NNE 7.9 km/h 13.7 km/h 98% 0.0 mm
16:54 6.8 °C 7.0 °C 1009.0 hPa NNE 9.3 km/h 11.9 km/h 98% 0.0 mm
16:57 6.8 °C 7.0 °C 1009.0 hPa ENE 9.0 km/h 11.9 km/h 98% 0.0 mm
17:02 6.8 °C 7.0 °C 1009.0 hPa NE 10.1 km/h 12.2 km/h 98% 0.0 mm
17:07 6.8 °C 7.0 °C 1009.0 hPa NE 11.9 km/h 12.6 km/h 98% 0.0 mm
17:12 6.7 °C 7.0 °C 1009.0 hPa NE 12.2 km/h 13.7 km/h 98% 0.0 mm
17:14 6.7 °C 7.0 °C 1009.0 hPa NE 12.6 km/h 13.7 km/h 98% 0.0 mm
17:19 6.7 °C 7.0 °C 1009.0 hPa NE 6.4 km/h 13.7 km/h 98% 0.0 mm
17:21 6.7 °C 7.0 °C 1009.0 hPa NE 9.3 km/h 13.7 km/h 98% 0.0 mm
17:27 6.6 °C 7.0 °C 1010.0 hPa NNE 9.7 km/h 11.9 km/h 98% 0.0 mm
17:29 6.6 °C 7.0 °C 1010.0 hPa NNE 9.7 km/h 11.9 km/h 98% 0.0 mm
17:34 6.5 °C 7.0 °C 1010.0 hPa NE 11.9 km/h 14.0 km/h 98% 0.0 mm
17:39 6.5 °C 7.0 °C 1010.0 hPa NNE 11.6 km/h 14.0 km/h 98% 0.0 mm
17:44 6.5 °C 7.0 °C 1010.0 hPa ENE 9.7 km/h 14.0 km/h 98% 0.0 mm
17:49 6.5 °C 7.0 °C 1010.0 hPa NE 11.1 km/h 14.0 km/h 98% 0.0 mm
17:50 6.5 °C 7.0 °C 1010.0 hPa NE 10.5 km/h 14.0 km/h 98% 0.0 mm
17:55 6.5 °C 7.0 °C 1010.0 hPa NE 9.3 km/h 14.0 km/h 98% 0.0 mm
17:57 6.5 °C 7.0 °C 1010.0 hPa NE 11.9 km/h 14.0 km/h 98% 0.0 mm
18:03 6.5 °C 7.0 °C 1010.0 hPa NE 11.9 km/h 14.0 km/h 98% 0.0 mm
18:08 6.5 °C 7.0 °C 1010.0 hPa NE 5.8 km/h 13.7 km/h 98% 0.0 mm
18:13 6.5 °C 7.0 °C 1011.1 hPa NE 10.1 km/h 13.7 km/h 98% 0.0 mm
18:18 6.5 °C 7.0 °C 1011.1 hPa NE 8.7 km/h 13.7 km/h 98% 0.0 mm
18:24 6.5 °C 7.0 °C 1011.1 hPa NNE 13.0 km/h 13.7 km/h 98% 0.0 mm
18:29 6.5 °C 7.0 °C 1011.1 hPa NE 12.2 km/h 13.7 km/h 98% 0.0 mm
18:34 6.5 °C 7.0 °C 1011.1 hPa NE 12.6 km/h 14.0 km/h 98% 0.0 mm
18:36 6.5 °C 7.0 °C 1011.1 hPa NE 13.7 km/h 14.3 km/h 98% 0.0 mm
18:42 6.5 °C 7.0 °C 1011.1 hPa NE 10.8 km/h 14.8 km/h 98% 0.0 mm
18:47 6.4 °C 6.0 °C 1011.1 hPa NNE 13.7 km/h 14.8 km/h 98% 0.0 mm
18:52 6.4 °C 6.0 °C 1011.1 hPa NNE 11.9 km/h 14.0 km/h 98% 0.0 mm
18:54 6.4 °C 6.0 °C 1011.1 hPa NE 11.9 km/h 14.0 km/h 98% 0.0 mm
18:59 6.4 °C 6.0 °C 1011.1 hPa NE 12.2 km/h 14.0 km/h 98% 0.0 mm
19:02 6.4 °C 6.0 °C 1011.1 hPa NE 8.7 km/h 14.0 km/h 98% 0.0 mm
19:08 6.4 °C 6.0 °C 1011.1 hPa NE 14.0 km/h 14.0 km/h 98% 0.0 mm
19:13 6.4 °C 6.0 °C 1011.1 hPa NNE 10.5 km/h 14.0 km/h 98% 0.0 mm
19:18 6.4 °C 6.0 °C 1011.1 hPa NE 12.2 km/h 13.7 km/h 98% 0.0 mm
19:23 6.4 °C 6.0 °C 1011.1 hPa ENE 6.9 km/h 15.8 km/h 98% 0.0 mm
19:28 6.4 °C 6.0 °C 1011.1 hPa NNE 16.6 km/h 16.6 km/h 98% 0.0 mm
19:33 6.5 °C 7.0 °C 1011.1 hPa East 14.0 km/h 16.6 km/h 98% 0.0 mm
19:39 6.5 °C 7.0 °C 1011.1 hPa NE 15.4 km/h 17.7 km/h 98% 0.0 mm
19:49 6.5 °C 7.0 °C 1011.1 hPa NE 14.0 km/h 16.9 km/h 98% 0.0 mm
19:54 6.5 °C 7.0 °C 1011.1 hPa NNE 11.9 km/h 16.9 km/h 98% 0.0 mm
20:00 6.5 °C 7.0 °C 1012.1 hPa NE 14.0 km/h 16.9 km/h 98% 0.0 mm
20:05 6.5 °C 7.0 °C 1012.1 hPa NE 13.7 km/h 14.8 km/h 98% 0.0 mm
20:10 6.5 °C 7.0 °C 1012.1 hPa NE 15.4 km/h 15.4 km/h 98% 0.0 mm
20:15 6.5 °C 7.0 °C 1013.1 hPa NNE 13.7 km/h 17.7 km/h 98% 0.0 mm
20:20 6.5 °C 7.0 °C 1013.1 hPa NE 16.3 km/h 17.7 km/h 98% 0.0 mm
20:25 6.5 °C 7.0 °C 1013.1 hPa NE 13.7 km/h 17.7 km/h 98% 0.0 mm
20:26 6.5 °C 7.0 °C 1013.1 hPa NE 13.7 km/h 17.7 km/h 98% 0.0 mm
20:31 6.5 °C 7.0 °C 1013.1 hPa NNE 16.3 km/h 25.9 km/h 98% 0.0 mm
20:36 6.6 °C 7.0 °C 1013.1 hPa NE 17.2 km/h 25.9 km/h 98% 0.0 mm
20:41 6.6 °C 7.0 °C 1013.1 hPa NE 9.7 km/h 20.6 km/h 98% 0.0 mm
20:46 6.6 °C 7.0 °C 1013.1 hPa NNE 12.6 km/h 20.9 km/h 98% 0.0 mm
20:51 6.6 °C 6.0 °C 1013.1 hPa NE 11.9 km/h 21.9 km/h 97% 0.0 mm
20:55 6.6 °C 6.0 °C 1012.1 hPa NNE 16.6 km/h 21.9 km/h 97% 0.0 mm
21:00 6.6 °C 6.0 °C 1012.1 hPa NE 16.3 km/h 23.8 km/h 97% 0.0 mm
21:03 6.6 °C 6.0 °C 1012.1 hPa NE 17.7 km/h 23.8 km/h 97% 0.0 mm
21:08 6.6 °C 6.0 °C 1012.1 hPa NE 15.4 km/h 20.1 km/h 97% 0.0 mm
21:10 6.5 °C 6.0 °C 1012.1 hPa NE 14.0 km/h 20.1 km/h 97% 0.0 mm
21:12 6.5 °C 6.0 °C 1013.1 hPa North 17.7 km/h 19.8 km/h 97% 0.0 mm
21:18 6.5 °C 6.0 °C 1013.1 hPa NE 25.3 km/h 25.3 km/h 96% 0.0 mm
21:20 6.5 °C 6.0 °C 1013.1 hPa NE 23.8 km/h 25.3 km/h 96% 0.0 mm
21:25 6.5 °C 6.0 °C 1013.1 hPa ENE 14.0 km/h 25.3 km/h 96% 0.0 mm
21:29 6.4 °C 6.0 °C 1014.1 hPa ENE 14.0 km/h 23.8 km/h 95% 0.0 mm
21:34 6.4 °C 6.0 °C 1014.1 hPa NNE 20.6 km/h 25.9 km/h 95% 0.0 mm
21:38 6.4 °C 6.0 °C 1014.1 hPa NE 14.0 km/h 25.9 km/h 95% 0.0 mm
21:43 6.4 °C 6.0 °C 1014.1 hPa NE 11.1 km/h 25.9 km/h 95% 0.0 mm
21:49 6.4 °C 6.0 °C 1014.1 hPa NNE 17.2 km/h 20.9 km/h 95% 0.0 mm
21:54 6.3 °C 6.0 °C 1014.1 hPa NE 13.0 km/h 19.8 km/h 96% 0.0 mm
21:59 6.3 °C 6.0 °C 1014.1 hPa ENE 13.0 km/h 19.8 km/h 96% 0.0 mm
22:04 6.3 °C 6.0 °C 1014.1 hPa NE 12.2 km/h 19.8 km/h 96% 0.0 mm
22:09 6.3 °C 6.0 °C 1014.1 hPa NNE 16.9 km/h 20.1 km/h 96% 0.0 mm
22:14 6.3 °C 6.0 °C 1014.1 hPa NE 14.0 km/h 21.2 km/h 95% 0.0 mm
22:20 6.2 °C 6.0 °C 1014.1 hPa NE 24.5 km/h 24.5 km/h 95% 0.0 mm
22:25 6.1 °C 6.0 °C 1014.1 hPa ENE 16.6 km/h 24.5 km/h 95% 0.0 mm
22:31 6.1 °C 5.0 °C 1014.1 hPa NNE 17.7 km/h 24.5 km/h 94% 0.0 mm
22:33 6.1 °C 5.0 °C 1014.1 hPa NE 14.0 km/h 24.5 km/h 94% 0.0 mm
22:38 6.0 °C 5.0 °C 1014.1 hPa NE 12.6 km/h 23.8 km/h 94% 0.0 mm
22:43 6.0 °C 5.0 °C 1015.1 hPa NE 19.1 km/h 19.8 km/h 94% 0.0 mm
22:48 5.9 °C 5.0 °C 1015.1 hPa NE 16.6 km/h 21.9 km/h 94% 0.0 mm
22:54 5.9 °C 6.0 °C 1015.1 hPa NNE 16.6 km/h 21.9 km/h 95% 0.0 mm
22:59 5.9 °C 6.0 °C 1015.1 hPa NE 14.8 km/h 23.3 km/h 95% 0.0 mm
23:04 5.9 °C 6.0 °C 1015.1 hPa NE 14.0 km/h 23.3 km/h 95% 0.0 mm
23:09 5.9 °C 6.0 °C 1015.1 hPa NE 16.6 km/h 21.6 km/h 95% 0.0 mm
23:14 5.9 °C 6.0 °C 1016.1 hPa NE 14.3 km/h 21.2 km/h 95% 0.0 mm
23:19 5.9 °C 6.0 °C 1016.1 hPa North 15.8 km/h 21.2 km/h 95% 0.0 mm
23:24 5.8 °C 6.0 °C 1016.1 hPa NE 16.9 km/h 21.2 km/h 95% 0.0 mm
23:30 5.8 °C 6.0 °C 1015.1 hPa NNE 13.7 km/h 21.2 km/h 95% 0.0 mm
23:35 5.8 °C 5.0 °C 1015.1 hPa NNE 13.7 km/h 23.8 km/h 94% 0.0 mm
23:36 5.8 °C 5.0 °C 1015.1 hPa NNE 13.7 km/h 23.8 km/h 94% 0.0 mm
23:40 5.8 °C 5.0 °C 1015.1 hPa North 20.6 km/h 27.7 km/h 94% 0.0 mm
23:50 5.7 °C 5.0 °C 1015.1 hPa NNE 27.4 km/h 27.4 km/h 93% 0.0 mm
23:52 5.7 °C 5.0 °C 1015.1 hPa NE 17.7 km/h 27.4 km/h 93% 0.0 mm
23:57 5.7 °C 5.0 °C 1015.1 hPa NE 12.6 km/h 27.4 km/h 93% 0.0 mm
Données Historique de Météo Turbie

Mise a jour : 22/05/2018 21:52:12
Généré par Cumulus 1.9.4 (1099)